Tracking 19795 objects as of 19-Jul-2019
HD Live streaming from Space Station
objects crossing your sky now

SL-12 DEB

Track SL-12 DEB now!
10-day predictions


NORAD ID: 27918
Int'l Code: 1987-079AB
Perigee: 1,387.1 km
Apogee: 17,122.4 km
Inclination: 65.3 °
Period: 324.0 minutes
Semi major axis: 15625 km
RCS: 0.3222 m2 (medium)
Launch date: September 16, 1987
Source: Commonwealth of Independent States (former USSR) (CIS)
Launch site: TYURATAM MISSILE AND SPACE COMPLEX (TTMTR)

Note: This is SATELLITE DEBRIS
aabbcc
Your satellite tracking list
Your tracking list is empty




NASA's NSSDC Master Catalog

Two Line Element Set (TLE):
1 27918U 87079AB  19199.45465792  .00000053  00000-0  00000+0 0  9996
2 27918  65.2555 238.1612 5035054  72.6102 334.9553  4.44470012258890
Source of the keplerian elements: AFSPC